#�ϑ�����,���ϕ���,���ϕ���,�ő啗��,�ő啗����������,�ő�u�ԕ���,�ő�u�ԕ�����������
#(�N����),(m/s)   ,(16����),(m/s)   ,(16����)        ,(m/s)       ,(16����)            
2017/12/27 0:01,1.9,14,1.9,13,2.6,10
2017/12/27 0:02,1.9,13,1.9,13,3.1,9
2017/12/27 0:03,1.7,13,1.8,13,4.7,10
2017/12/27 0:04,1.9,12,1.9,13,6.3,9
2017/12/27 0:05,2.1,12,2.1,12,5,10
2017/12/27 0:06,2.3,11,2.3,12,5.5,10
2017/12/27 0:07,2.2,11,2.3,12,4.8,9
2017/12/27 0:08,2.3,11,2.3,12,5.1,9
2017/12/27 0:09,2.5,10,2.5,10,5.8,9
2017/12/27 0:10,2.7,10,2.7,10,5.8,10
2017/12/27 0:11,2.9,10,2.9,10,5,10
2017/12/27 0:12,3,10,3,10,4.2,12
2017/12/27 0:13,3.1,10,3.2,10,4.8,10
2017/12/27 0:14,3,10,3.1,10,4.4,10
2017/12/27 0:15,2.9,10,3,10,4.3,10
2017/12/27 0:16,2.9,10,2.9,10,4.9,10
2017/12/27 0:17,3,10,3,10,4.2,10
2017/12/27 0:18,2.9,10,3,10,4.2,10
2017/12/27 0:19,3,10,3,10,5.1,10
2017/12/27 0:20,2.8,10,3,10,3.5,12
2017/12/27 0:21,2.6,10,2.8,10,4.2,11
2017/12/27 0:22,2.5,10,2.6,10,3.8,10
2017/12/27 0:23,2.6,10,2.6,10,4.2,9
2017/12/27 0:24,2.5,10,2.6,10,3.5,8
2017/12/27 0:25,2.4,10,2.5,10,3.9,10
2017/12/27 0:26,2.3,10,2.4,10,4.2,10
2017/12/27 0:27,2.4,10,2.4,10,5.6,9
2017/12/27 0:28,2.3,10,2.4,10,5.4,8
2017/12/27 0:29,2,10,2.3,10,3,9
2017/12/27 0:30,2.1,10,2.1,10,5,10
2017/12/27 0:31,2.3,10,2.3,10,5.5,8
2017/12/27 0:32,2.6,10,2.6,10,6.4,10
2017/12/27 0:33,2.6,10,2.7,10,6.7,9
2017/12/27 0:34,2.8,10,2.8,10,5.2,10
2017/12/27 0:35,3,10,3,10,6.5,10
2017/12/27 0:36,3.1,10,3.1,10,6.2,9
2017/12/27 0:37,3,10,3.1,10,4.3,10
2017/12/27 0:38,3,10,3,10,3.6,10
2017/12/27 0:39,3,10,3,10,1.9,9
2017/12/27 0:40,3,10,3,10,5.6,10
2017/12/27 0:41,3,10,3,10,6.2,10
2017/12/27 0:42,2.7,9,2.9,10,3.6,8
2017/12/27 0:43,2.4,10,2.6,10,1,6
2017/12/27 0:44,2.1,10,2.4,10,1.9,10
2017/12/27 0:45,1.8,10,2.1,10,1.5,10
2017/12/27 0:46,1.6,10,1.7,10,3.1,1
2017/12/27 0:47,1.5,10,1.6,10,1.9,2
2017/12/27 0:48,1.3,10,1.4,10,1.5,2
2017/12/27 0:49,1.3,12,1.3,10,2.2,16
2017/12/27 0:50,1.1,16,1.3,10,2.9,15
2017/12/27 0:51,1,15,1.1,10,3.1,12
2017/12/27 0:52,1.1,15,1.1,9,3.3,9
2017/12/27 0:53,1.2,14,1.2,10,3.1,8
2017/12/27 0:54,1.1,15,1.2,10,0.6,6
2017/12/27 0:55,1.4,15,1.4,10,5,11
2017/12/27 0:56,1.5,13,1.5,10,5.5,10
2017/12/27 0:57,1.5,12,1.6,12,3.8,10
2017/12/27 0:58,1.7,11,1.7,11,3.2,15
2017/12/27 0:59,1.6,11,1.7,11,1.8,14
2017/12/27 1:00,1.6,11,1.6,11,3.3,7
2017/12/27 1:01,1.7,11,1.7,11,4.1,10
2017/12/27 1:02,1.7,11,1.7,11,4.9,10
2017/12/27 1:03,1.8,11,1.8,11,3.8,8
2017/12/27 1:04,2,11,2,11,4.1,10
2017/12/27 1:05,1.8,11,2,11,2.7,6
2017/12/27 1:06,1.8,11,1.8,11,5.7,10
2017/12/27 1:07,1.8,11,1.8,11,3.1,10
2017/12/27 1:08,1.8,11,1.8,11,5.1,16
2017/12/27 1:09,2.1,11,2.1,11,4.3,16
2017/12/27 1:10,2.1,12,2.1,11,2.5,2
2017/12/27 1:11,2,13,2.1,11,2.4,1
2017/12/27 1:12,1.8,14,2,11,3,8
2017/12/27 1:13,1.7,14,1.8,11,3.3,8
2017/12/27 1:14,1.6,15,1.7,11,1.8,13
2017/12/27 1:15,1.6,14,1.6,11,2.6,10
2017/12/27 1:16,1.7,14,1.7,11,6.8,12
2017/12/27 1:17,1.8,14,1.8,11,6.3,10
2017/12/27 1:18,1.8,12,1.9,11,5.6,10
2017/12/27 1:19,1.6,11,1.8,11,3.5,9
2017/12/27 1:20,1.6,11,1.6,12,3,13
2017/12/27 1:21,1.7,11,1.7,13,4.3,13
2017/12/27 1:22,1.7,11,1.7,13,2.1,9
2017/12/27 1:23,1.8,11,1.8,13,3.2,10
2017/12/27 1:24,1.8,11,1.8,13,3.3,8
2017/12/27 1:25,2.2,11,2.2,11,8.3,10
2017/12/27 1:26,2.2,11,2.3,11,9,9
2017/12/27 1:27,2.5,11,2.5,11,7.8,10
2017/12/27 1:28,2.6,10,2.6,10,6.4,11
2017/12/27 1:29,2.9,11,2.9,11,7,11
2017/12/27 1:30,3,10,3,10,7,11
2017/12/27 1:31,3,10,3,10,4.2,10
2017/12/27 1:32,3.2,11,3.2,10,4.2,13
2017/12/27 1:33,3.2,11,3.2,10,3.8,16
2017/12/27 1:34,3.4,11,3.4,11,5,1
2017/12/27 1:35,3,12,3.3,11,3.1,14
2017/12/27 1:36,2.8,12,3,11,4.1,11
2017/12/27 1:37,2.6,12,2.8,11,3.6,10
2017/12/27 1:38,2.2,13,2.6,11,2,15
2017/12/27 1:39,2,13,2.2,11,2.6,12
2017/12/27 1:40,1.8,14,2,11,1.9,16
2017/12/27 1:41,1.7,14,1.8,11,1.9,1
2017/12/27 1:42,1.6,15,1.7,11,1.9,1
2017/12/27 1:43,1.4,15,1.5,11,1.1,16
2017/12/27 1:44,1.2,14,1.4,11,2,11
2017/12/27 1:45,1.2,14,1.2,12,4.2,11
2017/12/27 1:46,1.2,14,1.2,12,4.9,12
2017/12/27 1:47,1.1,14,1.2,12,2.5,10
2017/12/27 1:48,1.2,14,1.2,13,3.5,1
2017/12/27 1:49,1.2,15,1.2,13,2.9,16
2017/12/27 1:50,1.3,15,1.3,14,2.1,1
2017/12/27 1:51,1.2,15,1.3,14,1.4,2
2017/12/27 1:52,1.3,15,1.3,15,2.7,16
2017/12/27 1:53,1.3,15,1.3,15,1,12
2017/12/27 1:54,1.3,15,1.3,15,1.3,16
2017/12/27 1:55,1.2,16,1.3,15,0.9,4
2017/12/27 1:56,1,16,1.2,15,1.9,10
2017/12/27 1:57,0.9,16,1,15,1.5,12
2017/12/27 1:58,0.9,16,0.9,15,1.8,11
2017/12/27 1:59,0.9,15,0.9,15,2.2,10
2017/12/27 2:00,0.8,14,0.9,15,1.3,13
2017/12/27 2:01,0.7,14,0.8,15,0.8,15
2017/12/27 2:02,0.7,14,0.7,15,2.5,16
2017/12/27 2:03,0.8,14,0.8,15,2.7,14
2017/12/27 2:04,0.9,14,0.9,16,2.1,16
2017/12/27 2:05,0.9,14,1,16,3,16
2017/12/27 2:06,0.9,14,0.9,16,0.8,16
2017/12/27 2:07,0.9,14,0.9,14,0.9,8
2017/12/27 2:08,0.8,15,0.8,14,0.9,16
2017/12/27 2:09,0.7,16,0.8,14,1.3,15
2017/12/27 2:10,0.8,16,0.8,14,2.7,15
2017/12/27 2:11,1,15,1,14,3.5,15
2017/12/27 2:12,1,15,1.1,15,3,14
2017/12/27 2:13,0.9,15,1,15,1.4,9
2017/12/27 2:14,0.8,14,0.9,15,0.9,9
2017/12/27 2:15,0.8,14,0.8,15,0.6,8
2017/12/27 2:16,0.8,13,0.8,15,1.6,9
2017/12/27 2:17,1,13,1,15,3.1,11
2017/12/27 2:18,1.2,12,1.2,12,3.6,11
2017/12/27 2:19,1.3,11,1.3,12,3.5,12
2017/12/27 2:20,1.4,11,1.4,11,3.7,11
2017/12/27 2:21,1.5,11,1.5,11,4.4,10
2017/12/27 2:22,1.6,10,1.6,10,4.2,10
2017/12/27 2:23,1.5,10,1.6,10,2.2,11
2017/12/27 2:24,1.6,11,1.6,10,2.7,12
2017/12/27 2:25,1.7,11,1.7,11,1.9,9
2017/12/27 2:26,1.7,11,1.7,11,1.9,11
2017/12/27 2:27,1.6,11,1.7,11,1.6,13
2017/12/27 2:28,1.7,11,1.7,11,5.1,10
2017/12/27 2:29,1.7,11,1.7,11,4.1,10
2017/12/27 2:30,1.6,10,1.7,11,3.7,10
2017/12/27 2:31,1.4,10,1.6,11,2.5,11
2017/12/27 2:32,1.4,10,1.4,11,3.6,10
2017/12/27 2:33,1.6,11,1.6,11,4.7,10
2017/12/27 2:34,1.8,11,1.8,11,5,10
2017/12/27 2:35,1.9,10,1.9,10,4.5,7
2017/12/27 2:36,2.1,10,2.1,10,4.4,8
2017/12/27 2:37,2.3,10,2.3,10,6.3,10
2017/12/27 2:38,2.2,10,2.3,10,3.7,10
2017/12/27 2:39,2.1,10,2.2,10,2.2,10
2017/12/27 2:40,2,10,2.1,10,1.8,8
2017/12/27 2:41,2.1,10,2.1,10,2.2,2
2017/12/27 2:42,2,10,2.1,10,3.3,3
2017/12/27 2:43,1.9,10,2,10,3.5,3
2017/12/27 2:44,1.6,10,1.9,10,0.8,15
2017/12/27 2:45,1.6,10,1.6,10,4.1,7
2017/12/27 2:46,1.5,9,1.6,10,4.8,6
2017/12/27 2:47,1.3,3,1.5,10,1.5,5
2017/12/27 2:48,1.2,1,1.2,10,2.7,14
2017/12/27 2:49,1.3,16,1.3,10,2.5,12
2017/12/27 2:50,1.3,15,1.3,10,2.5,12
2017/12/27 2:51,1.2,14,1.3,10,1.5,13
2017/12/27 2:52,1.2,12,1.2,10,2.5,8
2017/12/27 2:53,1.3,11,1.3,10,3.2,8
2017/12/27 2:54,1.5,10,1.5,10,6.1,8
2017/12/27 2:55,1.7,10,1.7,10,5.1,8
2017/12/27 2:56,1.6,11,1.7,10,2.6,9
2017/12/27 2:57,1.7,11,1.7,10,1.9,9
2017/12/27 2:58,1.7,10,1.7,10,3.9,9
2017/12/27 2:59,1.7,10,1.7,10,3,12
2017/12/27 3:00,1.7,10,1.7,10,2.4,1
2017/12/27 3:01,1.8,10,1.8,10,3.2,2
2017/12/27 3:02,1.9,10,1.9,10,3.9,13
2017/12/27 3:03,1.9,11,1.9,10,5.6,12
2017/12/27 3:04,2.1,11,2.1,11,8.2,13
2017/12/27 3:05,1.9,12,2.1,11,3.9,12
2017/12/27 3:06,2,12,2,11,5.1,5
2017/12/27 3:07,2,12,2,11,3.6,5
2017/12/27 3:08,2,13,2,11,3.2,16
2017/12/27 3:09,2,14,2,11,4.4,1
2017/12/27 3:10,2,13,2.1,11,2.4,7
2017/12/27 3:11,2.1,13,2.1,11,3.8,6
2017/12/27 3:12,1.9,10,2.1,11,1.1,9
2017/12/27 3:13,1.7,9,1.9,11,1.5,10
2017/12/27 3:14,1.3,6,1.7,11,0,11
2017/12/27 3:15,1.1,6,1.2,14,0,16
2017/12/27 3:16,0.9,7,1.1,14,0,2
2017/12/27 3:17,0.9,8,0.9,14,3.2,9
2017/12/27 3:18,1,9,1,14,4.1,10
2017/12/27 3:19,0.9,9,1,14,4.2,10
2017/12/27 3:20,1,10,1,13,5.5,12
2017/12/27 3:21,1.1,11,1.1,13,6.2,12
2017/12/27 3:22,1.3,11,1.3,10,4.2,1
2017/12/27 3:23,1.5,11,1.5,8,4.4,9
2017/12/27 3:24,1.7,10,1.7,10,3.9,8
2017/12/27 3:25,1.9,10,1.9,10,3.8,10
2017/12/27 3:26,2,10,2,10,3.3,10
2017/12/27 3:27,2.2,10,2.2,10,7.9,9
2017/12/27 3:28,2.4,10,2.4,10,7.4,11
2017/12/27 3:29,2.4,11,2.5,10,5.5,12
2017/12/27 3:30,2.3,10,2.4,10,5.6,10
2017/12/27 3:31,2.4,10,2.4,10,6.8,10
2017/12/27 3:32,2.5,10,2.5,10,4.2,12
2017/12/27 3:33,2.4,11,2.5,10,2.7,14
2017/12/27 3:34,2.3,12,2.4,10,1.8,1
2017/12/27 3:35,2.2,11,2.3,10,2,7
2017/12/27 3:36,2.3,12,2.3,10,8.4,9
2017/12/27 3:37,2.6,12,2.6,12,11.7,10
2017/12/27 3:38,2.6,12,2.7,12,6.9,11
2017/12/27 3:39,2.7,12,2.7,12,3.6,1
2017/12/27 3:40,2.8,12,2.8,12,7.8,10
2017/12/27 3:41,2.8,12,2.8,12,7.1,9
2017/12/27 3:42,3,12,3,12,11,11
2017/12/27 3:43,3,11,3.1,12,3.9,12
2017/12/27 3:44,3.2,11,3.2,11,6.1,16
2017/12/27 3:45,3.2,12,3.2,11,2.7,13
2017/12/27 3:46,3.2,12,3.3,12,4.7,10
2017/12/27 3:47,3,12,3.3,12,6.9,9
2017/12/27 3:48,2.7,11,2.9,12,5.5,9
2017/12/27 3:49,2.9,11,2.9,12,8.7,13
2017/12/27 3:50,2.9,12,3,12,6.8,10
2017/12/27 3:51,2.8,12,2.9,12,4.3,9
2017/12/27 3:52,2.5,11,2.8,12,5.4,9
2017/12/27 3:53,3,11,3,12,10.7,9
2017/12/27 3:54,3.2,11,3.2,12,10.5,10
2017/12/27 3:55,3.4,11,3.4,11,7.1,8
2017/12/27 3:56,3.4,10,3.5,10,6.4,11
2017/12/27 3:57,3.2,10,3.4,10,4.7,9
2017/12/27 3:58,3.4,10,3.4,10,9.4,10
2017/12/27 3:59,3.4,10,3.5,10,7.4,12
2017/12/27 4:00,3.2,10,3.4,10,4.1,13
2017/12/27 4:01,3.4,10,3.4,10,9.1,10
2017/12/27 4:02,3.6,10,3.6,10,11.3,10
2017/12/27 4:03,3.6,10,3.7,10,11.5,11
2017/12/27 4:04,3.3,11,3.6,10,4.3,13
2017/12/27 4:05,3.2,11,3.3,10,4.2,12
2017/12/27 4:06,3.1,11,3.2,10,4.2,8
2017/12/27 4:07,3.4,11,3.4,10,10.9,10
2017/12/27 4:08,3.6,11,3.6,10,9,7
2017/12/27 4:09,3.6,11,3.6,10,10.6,9
2017/12/27 4:10,3.9,11,3.9,11,7.2,12
2017/12/27 4:11,3.8,10,3.8,11,5.2,11
2017/12/27 4:12,3.5,10,3.8,11,5,9
2017/12/27 4:13,3.6,10,3.6,11,10.2,10
2017/12/27 4:14,3.9,10,3.9,11,7.7,12
2017/12/27 4:15,4.3,11,4.3,10,10.7,11
2017/12/27 4:16,4.5,11,4.5,11,6.8,12
2017/12/27 4:17,4.2,11,4.4,11,6.2,9
2017/12/27 4:18,4.1,11,4.2,11,9.1,10
2017/12/27 4:19,4.1,11,4.2,11,8.5,10
2017/12/27 4:20,4.1,11,4.1,11,6.3,11
2017/12/27 4:21,4,11,4.1,11,3.6,12
2017/12/27 4:22,3.8,11,3.9,11,2.9,12
2017/12/27 4:23,3.4,11,3.8,11,4.1,10
2017/12/27 4:24,3.1,11,3.3,11,3.7,10
2017/12/27 4:25,2.8,11,3.1,11,8.4,9
2017/12/27 4:26,2.8,10,2.8,11,5.8,12
2017/12/27 4:27,2.8,10,2.8,11,6.7,12
2017/12/27 4:28,2.9,11,3,11,11.4,13
2017/12/27 4:29,2.8,11,2.9,11,9.1,10
2017/12/27 4:30,3,11,3.1,11,11.5,13
2017/12/27 4:31,3.1,11,3.1,11,3.8,12
2017/12/27 4:32,3.4,11,3.4,11,6.2,10
2017/12/27 4:33,3.7,11,3.7,11,9.7,10
2017/12/27 4:34,3.9,11,3.9,11,6.9,10
2017/12/27 4:35,4.1,11,4.1,11,11.5,11
2017/12/27 4:36,4.2,11,4.2,11,10.8,10
2017/12/27 4:37,4.4,11,4.4,11,8.3,9
2017/12/27 4:38,4.4,10,4.4,11,10.5,11
2017/12/27 4:39,4.5,10,4.5,10,10,11
2017/12/27 4:40,4.2,10,4.5,10,6,10
2017/12/27 4:41,4.7,10,4.7,10,10.9,9
2017/12/27 4:42,4.7,10,4.8,10,9.5,11
2017/12/27 4:43,4.8,10,4.8,10,11.3,11
2017/12/27 4:44,5.1,10,5.1,10,15.4,10
2017/12/27 4:45,4.9,10,5.2,10,7.2,11
2017/12/27 4:46,5.1,10,5.1,10,9.2,12
2017/12/27 4:47,5.1,10,5.1,10,8.9,9
2017/12/27 4:48,4.7,10,5.1,10,4.1,10
2017/12/27 4:49,4.6,10,4.7,10,7.5,10
2017/12/27 4:50,4.6,10,4.6,10,8.3,9
2017/12/27 4:51,4.3,10,4.6,10,7.9,10
2017/12/27 4:52,4.2,10,4.2,10,7.9,10
2017/12/27 4:53,4.3,10,4.3,10,8.4,10
2017/12/27 4:54,4,10,4.3,10,8.2,9
2017/12/27 4:55,4.1,10,4.1,10,9.3,10
2017/12/27 4:56,4,11,4.1,10,7.5,10
2017/12/27 4:57,4.1,11,4.1,10,13.6,11
2017/12/27 4:58,4.3,11,4.3,10,7.4,10
2017/12/27 4:59,4.3,11,4.4,10,9.2,12
2017/12/27 5:00,4.2,11,4.3,10,4.3,8
2017/12/27 5:01,4.3,11,4.3,11,8.3,12
2017/12/27 5:02,4.4,11,4.4,11,9.1,12
2017/12/27 5:03,4.5,11,4.5,11,10,10
2017/12/27 5:04,4.5,11,4.5,11,8.2,11
2017/12/27 5:05,4.4,11,4.6,11,6.2,9
2017/12/27 5:06,4.3,11,4.4,11,5.4,9
2017/12/27 5:07,4.1,10,4.3,11,10.5,9
2017/12/27 5:08,4,10,4.1,11,7.4,9
2017/12/27 5:09,3.9,10,4,11,7.4,10
2017/12/27 5:10,3.9,11,3.9,11,4.9,13
2017/12/27 5:11,3.7,11,3.9,11,6.4,9
2017/12/27 5:12,3.7,11,3.7,11,7.6,9
2017/12/27 5:13,3.8,11,3.8,11,12.4,9
2017/12/27 5:14,3.6,10,3.8,11,9.3,9
2017/12/27 5:15,3.8,10,3.8,11,8.2,11
2017/12/27 5:16,3.9,10,3.9,11,10.8,9
2017/12/27 5:17,3.9,10,4,10,8.2,8
2017/12/27 5:18,4,10,4,10,6,11
2017/12/27 5:19,4.2,10,4.2,10,10.3,12
2017/12/27 5:20,4.4,10,4.4,10,9.1,11
2017/12/27 5:21,4.4,10,4.4,10,10.1,9
2017/12/27 5:22,4.4,10,4.4,10,9.1,10
2017/12/27 5:23,4.2,10,4.5,10,10.5,10
2017/12/27 5:24,4.1,11,4.3,10,7.8,10
2017/12/27 5:25,4,11,4.1,10,6.2,9
2017/12/27 5:26,4.1,11,4.1,10,12.4,9
2017/12/27 5:27,4.5,11,4.5,10,11.5,9
2017/12/27 5:28,4.7,11,4.7,11,7.8,11
2017/12/27 5:29,4.5,11,4.7,11,8.3,11
2017/12/27 5:30,4.4,11,4.5,11,5.7,10
2017/12/27 5:31,4.5,11,4.6,11,9.2,10
2017/12/27 5:32,4.6,11,4.6,11,12.1,10
2017/12/27 5:33,4.9,10,4.9,11,12.1,10
2017/12/27 5:34,5.1,10,5.1,10,8.9,10
2017/12/27 5:35,5.4,10,5.4,10,11.5,11
2017/12/27 5:36,5.3,11,5.5,10,12.1,10
2017/12/27 5:37,4.8,11,5.3,10,3.9,8
2017/12/27 5:38,4.7,11,4.8,10,6.1,10
2017/12/27 5:39,4.6,10,4.7,10,9,12
2017/12/27 5:40,4.7,10,4.8,10,10.2,13
2017/12/27 5:41,4.7,10,4.8,10,7.2,10
2017/12/27 5:42,4.4,10,4.6,10,7.2,11
2017/12/27 5:43,4,10,4.4,10,6.5,12
2017/12/27 5:44,3.6,11,4,10,5.7,9
2017/12/27 5:45,3.7,10,3.7,10,10.9,10
2017/12/27 5:46,3.7,10,3.7,11,9.2,10
2017/12/27 5:47,4,10,4,10,9.2,9
2017/12/27 5:48,4.2,10,4.2,10,11.6,10
2017/12/27 5:49,4.4,10,4.4,10,9.2,11
2017/12/27 5:50,4.3,10,4.4,10,7.6,11
2017/12/27 5:51,4.1,10,4.3,10,2.1,15
2017/12/27 5:52,4,10,4.1,10,5.1,10
2017/12/27 5:53,4,10,4,10,6,9
2017/12/27 5:54,4,10,4,10,4.5,11
2017/12/27 5:55,3.7,10,4,10,7.9,9
2017/12/27 5:56,3.7,10,3.8,10,7.2,10
2017/12/27 5:57,3.6,11,3.7,10,7.8,11
2017/12/27 5:58,3.5,11,3.6,10,10.7,12
2017/12/27 5:59,3.5,11,3.6,10,7.7,13
2017/12/27 6:00,3.4,11,3.4,10,5.1,11
2017/12/27 6:01,3.7,11,3.7,10,7.2,9
2017/12/27 6:02,3.8,11,3.8,10,7.5,12
2017/12/27 6:03,3.8,11,3.9,10,6.3,11
2017/12/27 6:04,3.9,11,3.9,10,6.1,11
2017/12/27 6:05,3.8,11,3.9,11,7.2,12
2017/12/27 6:06,3.8,11,3.8,11,8.1,10
2017/12/27 6:07,3.9,11,3.9,11,11.6,13
2017/12/27 6:08,3.8,11,3.9,11,7.7,12
2017/12/27 6:09,3.6,11,3.7,11,4.2,13
2017/12/27 6:10,3.5,11,3.6,11,4.5,10
2017/12/27 6:11,3.5,11,3.6,11,10,12
2017/12/27 6:12,3.7,11,3.7,11,10.8,10
2017/12/27 6:13,3.8,11,3.8,11,6.9,10
2017/12/27 6:14,3.9,11,3.9,11,6.7,10
2017/12/27 6:15,4.1,11,4.1,11,10.7,12
2017/12/27 6:16,4,11,4.2,11,7.4,12
2017/12/27 6:17,4,11,4.1,11,7.4,10
2017/12/27 6:18,3.9,11,4,11,4.8,11
2017/12/27 6:19,3.7,11,3.8,11,3.3,10
2017/12/27 6:20,3.9,11,3.9,11,9.1,12
2017/12/27 6:21,3.8,11,4,11,6.4,10
2017/12/27 6:22,3.6,11,3.8,11,8.6,13
2017/12/27 6:23,3.7,11,3.7,11,7,10
2017/12/27 6:24,3.8,11,3.8,11,8.2,10
2017/12/27 6:25,3.6,11,3.8,11,7.6,10
2017/12/27 6:26,3.9,11,3.9,11,9.5,10
2017/12/27 6:27,3.9,11,3.9,11,8.7,9
2017/12/27 6:28,4,11,4,11,6.2,10
2017/12/27 6:29,4.2,11,4.2,11,6.4,11
2017/12/27 6:30,4.1,11,4.3,11,5.5,12
2017/12/27 6:31,4,10,4.1,11,8.3,10
2017/12/27 6:32,4.3,10,4.3,11,9.5,10
2017/12/27 6:33,4.2,10,4.3,11,7.4,10
2017/12/27 6:34,4.2,10,4.3,11,7.8,10
2017/12/27 6:35,4,10,4.2,11,5.2,9
2017/12/27 6:36,3.8,10,4,11,8.9,9
2017/12/27 6:37,3.8,10,3.8,11,9.8,9
2017/12/27 6:38,3.9,10,3.9,11,10.8,9
2017/12/27 6:39,4.1,10,4.1,11,8.6,11
2017/12/27 6:40,4.3,10,4.3,10,8.2,10
2017/12/27 6:41,4.4,10,4.4,10,8.9,10
2017/12/27 6:42,4.4,10,4.4,10,9.5,11
2017/12/27 6:43,4.4,10,4.5,10,8.6,11
2017/12/27 6:44,4.5,11,4.5,10,8.9,12
2017/12/27 6:45,4.7,11,4.7,11,8.2,10
2017/12/27 6:46,4.9,10,4.9,10,7.8,10
2017/12/27 6:47,4.9,11,4.9,10,9.2,10
2017/12/27 6:48,5.1,11,5.1,10,11.6,11
2017/12/27 6:49,4.7,11,5.1,10,4.8,13
2017/12/27 6:50,4.7,10,4.8,10,6.7,10
2017/12/27 6:51,4.7,10,4.8,10,7.8,10
2017/12/27 6:52,4.5,10,4.7,10,10.1,9
2017/12/27 6:53,4.5,10,4.5,10,7.4,11
2017/12/27 6:54,4.4,10,4.4,10,9.4,9
2017/12/27 6:55,4.4,10,4.4,10,7.1,9
2017/12/27 6:56,4.4,10,4.5,10,8.9,10
2017/12/27 6:57,4.4,10,4.4,10,10,11
2017/12/27 6:58,4.4,10,4.4,11,10.8,10
2017/12/27 6:59,4.6,10,4.6,11,10.3,10
2017/12/27 7:00,4.5,10,4.6,10,6.1,9
2017/12/27 7:01,4.4,10,4.6,10,9.2,9
2017/12/27 7:02,4.5,10,4.5,10,10.7,9
2017/12/27 7:03,4.7,10,4.7,10,11.1,11
2017/12/27 7:04,4.9,10,4.9,10,9.1,10
2017/12/27 7:05,4.9,10,4.9,10,8.9,10
2017/12/27 7:06,4.9,10,4.9,10,9.7,10
2017/12/27 7:07,4.9,10,5.1,10,9.1,11
2017/12/27 7:08,4.9,10,5.1,10,12.4,10
2017/12/27 7:09,4.8,10,5,10,11.6,9
2017/12/27 7:10,5.2,11,5.2,10,13.2,10
2017/12/27 7:11,5.6,10,5.6,11,12.1,10
2017/12/27 7:12,5.5,10,5.6,11,11.5,9
2017/12/27 7:13,5.4,11,5.5,11,11,10
2017/12/27 7:14,5.4,11,5.5,11,9.8,10
2017/12/27 7:15,5.4,11,5.4,11,10.6,10
2017/12/27 7:16,5.5,11,5.6,11,11.6,10
2017/12/27 7:17,5.4,11,5.6,11,8.9,9
2017/12/27 7:18,5.3,11,5.3,11,9.7,9
2017/12/27 7:19,5.4,11,5.4,11,8.3,11
2017/12/27 7:20,5.5,11,5.5,11,9,10
2017/12/27 7:21,5.1,11,5.5,10,8.4,10
2017/12/27 7:22,5.1,11,5.1,11,6,9
2017/12/27 7:23,4.8,10,5.1,11,6.3,9
2017/12/27 7:24,4.8,10,4.8,11,6.8,10
2017/12/27 7:25,4.5,10,4.8,11,6.7,10
2017/12/27 7:26,4.3,10,4.5,11,7.5,11
2017/12/27 7:27,4.3,10,4.3,11,6.8,11
2017/12/27 7:28,4.3,10,4.3,11,6.9,10
2017/12/27 7:29,4.1,10,4.3,11,6,10
2017/12/27 7:30,3.7,10,4,11,4.5,10
2017/12/27 7:31,3.6,10,3.7,11,4.8,9
2017/12/27 7:32,3.5,10,3.6,11,4.3,11
2017/12/27 7:33,3.5,10,3.5,10,6.3,11
2017/12/27 7:34,3.5,10,3.6,10,8.5,9
2017/12/27 7:35,3.4,10,3.5,10,5.6,10
2017/12/27 7:36,3.5,10,3.5,10,7.6,10
2017/12/27 7:37,3.6,10,3.6,10,7.4,10
2017/12/27 7:38,3.5,10,3.6,10,6.4,9
2017/12/27 7:39,3.6,10,3.6,10,7.5,11
2017/12/27 7:40,3.7,10,3.7,10,7,10
2017/12/27 7:41,3.9,10,3.9,10,7.9,11
2017/12/27 7:42,4,10,4,10,7.4,11
2017/12/27 7:43,4.1,10,4.2,10,7.4,9
2017/12/27 7:44,4,10,4.1,10,4.9,11
2017/12/27 7:45,4.1,11,4.2,10,4.2,11
2017/12/27 7:46,4,11,4.1,10,7.5,11
2017/12/27 7:47,3.7,11,4,10,4.1,10
2017/12/27 7:48,3.6,11,3.7,10,4.7,10
2017/12/27 7:49,3.5,11,3.7,10,5.4,11
2017/12/27 7:50,3.5,11,3.5,10,7.7,10
2017/12/27 7:51,3.4,11,3.5,10,7.1,8
2017/12/27 7:52,3.3,11,3.3,10,7.1,10
2017/12/27 7:53,3.3,10,3.3,11,7.4,10
2017/12/27 7:54,3.3,10,3.3,11,6.9,10
2017/12/27 7:55,3.5,10,3.5,11,7.5,10
2017/12/27 7:56,3.3,10,3.5,11,4.1,9
2017/12/27 7:57,3.5,10,3.5,11,6.1,9
2017/12/27 7:58,3.6,10,3.6,11,8.1,10
2017/12/27 7:59,3.7,10,3.7,10,7.4,10
2017/12/27 8:00,3.7,10,3.8,10,8.4,10
2017/12/27 8:01,3.8,10,3.8,10,6.4,10
2017/12/27 8:02,4,10,4,10,10.5,9
2017/12/27 8:03,4,10,4,10,7.7,9
2017/12/27 8:04,4.2,10,4.3,10,9,10
2017/12/27 8:05,4.2,10,4.2,10,6.4,9
2017/12/27 8:06,4.3,10,4.3,10,6.7,10
2017/12/27 8:07,4.3,10,4.4,10,5.7,11
2017/12/27 8:08,4.3,10,4.3,10,5.8,11
2017/12/27 8:09,4.2,10,4.3,10,5.1,10
2017/12/27 8:10,4,10,4.2,10,3.9,11
2017/12/27 8:11,3.9,10,4,10,3.7,12
2017/12/27 8:12,3.5,10,3.9,10,4.3,9
2017/12/27 8:13,3.3,10,3.5,10,4.8,9
2017/12/27 8:14,2.9,10,3.2,10,4.8,11
2017/12/27 8:15,2.9,11,2.9,10,6.4,10
2017/12/27 8:16,3,11,3,10,6.4,10
2017/12/27 8:17,3,10,3,10,6.5,10
2017/12/27 8:18,2.9,10,2.9,10,5.2,10
2017/12/27 8:19,2.9,11,2.9,10,5.6,12
2017/12/27 8:20,2.9,11,2.9,10,5.2,8
2017/12/27 8:21,3,11,3.1,10,6.4,9
2017/12/27 8:22,3.2,11,3.2,10,6.5,10
2017/12/27 8:23,3.3,11,3.3,11,7.4,9
2017/12/27 8:24,3.6,10,3.6,10,6.8,10
2017/12/27 8:25,3.8,10,3.8,11,7.8,10
2017/12/27 8:26,3.8,10,3.9,10,8.9,10
2017/12/27 8:27,4,10,4,10,7.2,10
2017/12/27 8:28,4.1,10,4.1,10,8.6,9
2017/12/27 8:29,4.2,10,4.2,10,7.1,10
2017/12/27 8:30,4.5,10,4.5,10,8.3,10
2017/12/27 8:31,4.5,10,4.5,10,5.1,10
2017/12/27 8:32,4.4,10,4.5,10,5.8,10
2017/12/27 8:33,4.3,10,4.4,10,3.6,10
2017/12/27 8:34,4.2,10,4.3,10,3.9,11
2017/12/27 8:35,3.8,10,4.1,10,4.1,10
2017/12/27 8:36,3.6,10,3.8,10,4.4,10
2017/12/27 8:37,3.3,10,3.5,10,4.5,11
2017/12/27 8:38,3.2,10,3.3,10,6.5,10
2017/12/27 8:39,3,10,3.2,10,3.9,10
2017/12/27 8:40,2.7,10,3,10,4.4,10
2017/12/27 8:41,2.7,11,2.7,10,6.8,10
2017/12/27 8:42,2.6,11,2.7,10,5,11
2017/12/27 8:43,2.6,10,2.7,10,5.6,8
2017/12/27 8:44,2.6,11,2.6,10,4.2,12
2017/12/27 8:45,2.5,11,2.6,10,2.7,11
2017/12/27 8:46,2.6,11,2.6,10,5.5,11
2017/12/27 8:47,2.7,11,2.7,10,5.6,10
2017/12/27 8:48,2.7,11,2.7,10,5.1,12
2017/12/27 8:49,2.7,11,2.7,10,2.4,13
2017/12/27 8:50,2.5,12,2.6,10,2.4,10
2017/12/27 8:51,2.3,12,2.5,11,3.2,12
2017/12/27 8:52,2.3,12,2.3,11,3,9
2017/12/27 8:53,2.1,12,2.2,11,2.7,9
2017/12/27 8:54,2,11,2.1,11,2.6,8
2017/12/27 8:55,2.1,11,2.1,11,4.1,9
2017/12/27 8:56,2.1,11,2.2,11,4.3,10
2017/12/27 8:57,1.9,11,2.1,11,3.5,10
2017/12/27 8:58,1.7,11,1.9,11,4.2,9
2017/12/27 8:59,2,10,2,11,7.2,10
2017/12/27 9:00,2.2,10,2.2,12,6.3,8
2017/12/27 9:01,2.2,10,2.2,12,2.5,13
2017/12/27 9:02,2.2,10,2.2,12,3.2,14
2017/12/27 9:03,2.3,11,2.3,11,3.1,12
2017/12/27 9:04,2.2,11,2.3,11,2.7,12
2017/12/27 9:05,2.3,11,2.3,11,5.6,9
2017/12/27 9:06,2.3,11,2.3,11,5.8,12
2017/12/27 9:07,2.2,11,2.3,11,2.9,12
2017/12/27 9:08,2.2,11,2.2,11,2.2,10
2017/12/27 9:09,1.9,11,2.2,11,3,8
2017/12/27 9:10,1.9,11,1.9,11,4.4,11
2017/12/27 9:11,2,11,2,11,4.1,13
2017/12/27 9:12,1.9,11,2,11,2.2,12
2017/12/27 9:13,1.8,11,1.8,11,2.6,15
2017/12/27 9:14,1.9,11,1.9,11,4.7,9
2017/12/27 9:15,2,12,2,11,7.1,9
2017/12/27 9:16,1.9,11,2,11,5.8,8
2017/12/27 9:17,2,11,2,11,6,10
2017/12/27 9:18,2.3,11,2.3,11,7.4,10
2017/12/27 9:19,2.5,11,2.5,11,7.1,10
2017/12/27 9:20,2.6,11,2.6,11,6.2,10
2017/12/27 9:21,2.7,10,2.7,11,5.6,11
2017/12/27 9:22,2.8,10,2.8,10,4.3,10
2017/12/27 9:23,2.9,10,2.9,10,4.7,9
2017/12/27 9:24,2.8,10,2.9,10,4.1,9
2017/12/27 9:25,2.6,10,2.8,10,3.8,9
2017/12/27 9:26,2.7,10,2.7,10,5.8,9
2017/12/27 9:27,2.7,10,2.7,10,4.4,10
2017/12/27 9:28,2.4,10,2.6,10,4.7,10
2017/12/27 9:29,2.5,10,2.5,10,7.5,11
2017/12/27 9:30,2.6,10,2.6,10,5.8,9
2017/12/27 9:31,2.6,10,2.6,10,6.5,10
2017/12/27 9:32,2.6,10,2.6,10,3.8,10
2017/12/27 9:33,2.7,10,2.7,10,5.2,10
2017/12/27 9:34,2.8,10,2.8,10,4.9,10
2017/12/27 9:35,3.1,10,3.1,10,5.7,10
2017/12/27 9:36,3,10,3.1,10,4.1,9
2017/12/27 9:37,3.3,10,3.3,10,6.2,11
2017/12/27 9:38,3.3,10,3.3,10,4.9,10
2017/12/27 9:39,3,10,3.3,10,4.3,9
2017/12/27 9:40,3,10,3,10,5,12
2017/12/27 9:41,2.9,10,3,10,5.6,10
2017/12/27 9:42,3.3,10,3.3,10,8.7,9
2017/12/27 9:43,3.6,10,3.6,10,7.5,10
2017/12/27 9:44,3.8,10,3.8,10,6.7,9
2017/12/27 9:45,3.8,10,3.8,10,6.1,9
2017/12/27 9:46,4,10,4,10,4.9,10
2017/12/27 9:47,3.8,10,4,10,5.7,9
2017/12/27 9:48,4,10,4,10,8.2,9
2017/12/27 9:49,4.1,10,4.2,10,6.2,10
2017/12/27 9:50,4.3,10,4.3,10,6.5,10
2017/12/27 9:51,4.2,10,4.3,10,5.1,9
2017/12/27 9:52,4,10,4.3,10,5.1,8
2017/12/27 9:53,3.9,10,4,10,7.7,10
2017/12/27 9:54,3.8,10,3.9,10,5.4,10
2017/12/27 9:55,3.7,10,3.8,10,6.2,10
2017/12/27 9:56,3.5,10,3.7,10,6.2,11
2017/12/27 9:57,3.5,10,3.5,10,4.7,14
2017/12/27 9:58,3.6,10,3.6,10,8.5,11
2017/12/27 9:59,3.7,10,3.7,10,7.9,10
2017/12/27 10:00,3.7,11,3.8,10,10,10
2017/12/27 10:01,3.8,11,3.8,10,8.5,10
2017/12/27 10:02,4.1,11,4.1,11,8.7,10
2017/12/27 10:03,4.2,11,4.2,11,7.5,12
2017/12/27 10:04,4,11,4.1,11,5.4,8
2017/12/27 10:05,4.1,11,4.1,11,6.1,11
2017/12/27 10:06,4.1,11,4.1,11,6.9,9
2017/12/27 10:07,4.4,11,4.4,11,9.4,10
2017/12/27 10:08,4.5,11,4.6,11,10.9,10
2017/12/27 10:09,4.5,11,4.5,11,7.8,10
2017/12/27 10:10,4.5,11,4.5,11,7.9,11
2017/12/27 10:11,4.5,10,4.5,11,6.5,11
2017/12/27 10:12,4.3,10,4.5,11,6.4,10
2017/12/27 10:13,4.3,10,4.4,11,7.4,10
2017/12/27 10:14,4.5,10,4.5,11,7.8,10
2017/12/27 10:15,4.4,10,4.5,11,6.8,11
2017/12/27 10:16,4.3,10,4.4,11,4.9,10
2017/12/27 10:17,4,10,4.3,11,4.5,11
2017/12/27 10:18,3.8,10,4,11,7.4,10
2017/12/27 10:19,3.5,10,3.7,11,4.7,10
2017/12/27 10:20,3.4,10,3.5,10,7,10
2017/12/27 10:21,3.4,10,3.4,10,7.5,10
2017/12/27 10:22,3.6,10,3.6,10,8.9,10
2017/12/27 10:23,3.6,10,3.6,10,8.5,10
2017/12/27 10:24,3.7,11,3.7,10,10.6,9
2017/12/27 10:25,4.1,11,4.1,10,12.4,10
2017/12/27 10:26,4.6,11,4.6,11,11.5,10
2017/12/27 10:27,4.9,11,4.9,11,9.3,10
2017/12/27 10:28,5.1,11,5.1,10,9.4,10
2017/12/27 10:29,5.3,10,5.3,10,7.8,11
2017/12/27 10:30,5.4,10,5.4,10,10.9,9
2017/12/27 10:31,5.2,10,5.4,10,8.6,11
2017/12/27 10:32,5.1,11,5.3,10,6.4,13
2017/12/27 10:33,5.3,11,5.3,10,8.2,10
2017/12/27 10:34,5.1,11,5.3,10,6.2,10
2017/12/27 10:35,4.5,11,5,10,5.1,10
2017/12/27 10:36,4.3,11,4.4,10,9.2,10
2017/12/27 10:37,4.4,11,4.4,10,10.8,10
2017/12/27 10:38,4.3,11,4.4,10,6.4,13
2017/12/27 10:39,4.4,11,4.5,10,8.6,11
2017/12/27 10:40,4.5,11,4.6,10,10.5,10